Location: Presov
(49.0000°N, 21.2500°E)
Time: 10:27:29
(UTC+02:00)

A-11 Canister half - Pass Details

Date: 22 April 2021
Orbit: 1526 x 1683 km, 47.3° (Epoch: 11 May)

Event Time Altitude Azimuth Distance (km) Brightness Sun altitude
Rises 20:49:23 0° 288° (WNW) 4,934 13.3 -11.3°
Reaches altitude 10° 20:52:39 10° 284° (WNW) 3,949 12.4 -11.7°
Maximum altitude 21:02:18 51° 212° (SSW) 2,023 9.6 -13.0°
Enters shadow 21:10:16 16° 144° (SE) 3,445 10.2 -14.0°
